EW0195 Weather Reports


Display with metric or nautical units.
time (UTC)temp
F
wind
direction
speed
MPH
gust
MPH
rain 1hr
in
rain 24hr
in
rain mn
in
humidity
%
barometer
mb
20260507061451 51 42 3.0 13.0 0.00 0.00 0.00 92 1010.4
20260507055954 52 68 2.0 8.0 0.00 0.00 0.00 91 1010.5
20260507054451 53 55 4.0 9.0 0.00 0.00 0.00 91 1010.3
20260507052951 53 64 6.0 12.0 0.00 0.00 0.00 91 1010.4
20260507051452 54 75 4.0 11.0 0.00 0.00 0.00 91 1010.2
20260507045954 55 37 3.0 10.0 0.00 0.00 0.00 91 1010.4
20260507044453 55 75 3.0 11.0 0.00 0.00 0.00 90 1009.8
20260507042952 56 49 2.0 5.0 0.00 0.00 0.00 90 1009.5
20260507041454 56 71 4.0 9.0 0.00 0.00 0.00 90 1009.7
20260507035956 57 37 6.0 13.0 0.00 0.00 0.00 91 1009.4
20260507034452 57 66 3.0 9.0 0.00 0.00 0.00 90 1009.6
20260507032953 58 41 1.0 7.0 0.00 0.00 0.00 90 1009.7
20260507031451 58 69 2.0 8.0 0.00 0.00 0.00 90 1009.3
20260507025955 58 21 0.0 6.0 0.00 0.00 0.00 90 1009.7
20260507024451 59 62 1.0 4.0 0.00 0.00 0.00 90 1009.1
20260507021451 62 53 3.0 10.0 0.00 0.00 0.00 91 1009.4
20260507015954 63 20 0.0 0.0 0.00 0.00 0.00 90 1009.1
20260507011451 64 1 2.0 7.0 0.00 0.00 0.00 88 1008.9
20260507005954 64 320 1.0 3.0 0.00 0.00 0.00 88 1008.8
20260507004451 64 268 2.0 5.0 0.00 0.00 0.00 88 1008.7
20260507001451 64 300 1.0 6.0 0.00 0.00 0.00 87 1008.3
20260506235955 64 323 1.0 4.0 0.00 0.00 0.00 87 1008.3
20260506234451 65 266 2.0 5.0 0.00 0.00 0.00 86 1007.8
20260506232951 65 287 2.0 8.0 0.00 0.00 0.00 86 1008.0
20260506225953 65 338 3.0 8.0 0.00 0.00 0.00 85 1008.0
20260506224452 65 274 5.0 10.0 0.00 0.00 0.00 85 1008.0
20260506222951 66 259 5.0 12.0 0.00 0.00 0.00 84 1008.0
20260506221451 66 328 5.0 11.0 0.00 0.00 0.00 83 1008.0
20260506214452 66 326 5.0 10.0 0.00 0.00 0.00 84 1007.7
20260506212951 66 304 4.0 11.0 0.00 0.00 0.00 84 1007.7
20260506211451 66 274 3.0 8.0 0.00 0.00 0.00 85 1007.5
20260506205955 66 269 4.0 9.0 0.00 0.00 0.00 85 1007.4
20260506204451 65 300 5.0 9.0 0.00 0.00 0.00 85 1007.4
20260506201451 65 309 7.0 12.0 0.00 0.00 0.00 86 1007.3
20260506195953 65 319 6.0 13.0 0.00 0.00 0.00 86 1007.3
20260506194451 64 331 7.0 13.0 0.00 0.00 0.00 86 1007.5
20260506192952 64 284 7.0 15.0 0.00 0.00 0.00 88 1007.6
20260506191451 62 272 6.0 14.0 0.00 0.00 0.00 89 1007.7
20260506185954 62 330 6.0 14.0 0.00 0.00 0.00 90 1007.9
20260506184451 61 329 6.0 14.0 0.00 0.00 0.00 90 1008.1
20260506182952 61 323 6.0 17.0 0.00 0.00 0.00 90 1008.1
20260506181453 61 289 6.0 11.0 0.00 0.00 0.00 90 1008.2
20260506174451 61 305 8.0 18.0 0.00 0.00 0.00 91 1008.3
20260506172952 60 304 8.0 17.0 0.00 0.00 0.00 91 1008.4
20260506171451 60 331 9.0 21.0 0.00 0.00 0.00 91 1008.4
20260506165953 60 316 8.0 18.0 0.00 0.00 0.00 91 1008.5
20260506164451 60 305 9.0 20.0 0.00 0.00 0.00 91 1008.5
20260506161451 60 308 9.0 17.0 0.00 0.00 0.00 92 1008.8
20260506155955 60 263 8.0 17.0 0.00 0.00 0.00 92 1008.6
20260506152952 60 330 6.0 10.0 0.00 0.00 0.00 91 1009.8
20260506151451 60 298 6.0 15.0 0.00 0.00 0.00 90 1009.8
20260506145954 60 263 6.0 13.0 0.00 0.00 0.00 90 1009.5
20260506144453 60 278 5.0 655.0 0.00 0.00 0.00 89
20260506142951 61 259 6.0 15.0 0.00 0.00 0.00 87 1009.8
20260506141451 61 266 6.0 18.0 0.00 0.00 0.00 87 1009.7
20260506135955 62 275 6.0 14.0 0.00 0.00 0.00 85 1009.7
20260506134451 63 256 9.0 20.0 0.00 0.00 0.00 81 1009.7
20260506132951 63 342 8.0 17.0 0.00 0.00 0.00 82 1009.5
20260506131451 63 298 8.0 16.0 0.00 0.00 0.00 82 1009.6
20260506125954 63 291 7.0 17.0 0.00 0.00 0.00 81 1009.6
20260506121451 64 293 8.0 16.0 0.00 0.00 0.00 80 1009.7
20260506115955 64 300 9.0 18.0 0.00 0.00 0.00 80 1009.4
20260506112951 64 293 8.0 16.0 0.00 0.00 0.00 80 1009.3
20260506111451 63 269 9.0 18.0 0.00 0.00 0.00 80 1009.2
20260506104451 63 309 9.0 18.0 0.00 0.00 0.00 80 1009.1
20260506102951 63 267 9.0 16.0 0.00 0.00 0.00 80 1009.0
20260506101451 63 286 7.0 17.0 0.00 0.00 0.00 80 1009.0
20260506095954 63 329 8.0 16.0 0.00 0.00 0.00 80 1009.0
20260506094451 63 294 9.0 16.0 0.00 0.00 0.00 79 1008.9
20260506091451 64 276 8.0 16.0 0.00 0.00 0.00 78 1009.2
20260506084452 65 271 9.0 17.0 0.00 0.00 0.00 77 1009.2
20260506082951 65 290 9.0 17.0 0.00 0.00 0.00 76 1009.1
20260506081451 65 289 10.0 22.0 0.00 0.00 0.00 76 1008.9
20260506072952 66 291 7.0 15.0 0.00 0.00 0.00 75 1009.3
20260506071451 66 289 6.0 15.0 0.00 0.00 0.00 75 1009.4